Home   Weather   Schwedt/Oder   Past weeks

Flag for Germany Past Weather in Schwedt/Oder, Brandenburg, Germany — Yesterday and Last 2 Weeks

Now
32 °F

Ice fog.


Feels Like: 22 °F
Forecast: 39 / 45 °F
Wind: 15 mph from South

Location: Szczecin Airport

Current Time: Dec 7, 2016 at 11:46:50 am

Latest Report: Dec 7, 2016 at 11:00 am


Visibility: 1 mi

Pressure: 30.48 "Hg

Humidity: 93%

Dew Point: 30 °F

Location of Schwedt/OderLocation

Past Weather in Schwedt/Oder — Graph

°F

Schwedt/Oder Temperature Yesterday

Maximum temperature yesterday: 43 °F (at 12:30 pm)
Minimum temperature yesterday: 27 °F (at 9:00 pm)
Average temperature yesterday: 36 °F

High & Low Weather Summary for the Past Weeks

 TemperatureHumidityPressure
High52 °F (Nov 22, 12:30 pm)100% (Nov 22, 6:00 pm)30.54 "Hg (Nov 22, 6:00 pm)
Low25 °F (Nov 29, 1:00 am)56% (Nov 27, 7:30 pm)29.53 "Hg (Dec 1, 10:30 pm)
Average36 °F90%30.16 "Hg
* Reported Nov 22 10:00 am — Dec 7 10:30 am, Schwedt/Oder, Weather by CustomWeather, © 2016

Note: Actual official high and low records may vary slightly from our data, if they occured in-between our weather recording intervals... More about our weather records

Advertising

Schwedt/Oder Weather History for the Previous 24 Hours

Scroll right to see more
 ConditionsComfort  
Time TempWeatherWind HumidityBarometerVisibility
10:30 am
Wed, Dec 7
30 °FIce fog.13 mph100%30.51 "Hg1 mi
10:00 am30 °FIce fog.13 mph100%30.51 "Hg1 mi
9:30 am30 °FIce fog.10 mph100%30.51 "Hg1 mi
9:00 am30 °FIce fog.10 mph100%30.51 "Hg0 mi
8:30 am30 °FIce fog.10 mph100%30.51 "Hg0 mi
8:00 am30 °FIce fog.9 mph100%30.54 "Hg0 mi
7:30 am30 °FIce fog.9 mph93%30.51 "Hg0 mi
7:00 am28 °FIce fog.9 mph100%30.54 "Hg0 mi
6:30 am28 °FIce fog.8 mph100%30.51 "Hg0 mi
6:00 am28 °FIce fog.7 mph93%30.51 "Hg0 mi
5:30 am28 °FIce fog.9 mph93%30.54 "Hg0 mi
5:00 am27 °FIce fog.9 mph100%30.54 "Hg0 mi
4:30 am27 °FIce fog.6 mph100%30.54 "Hg0 mi
4:00 am27 °FIce fog.7 mph100%30.54 "Hg0 mi
3:30 am27 °FIce fog.7 mph100%30.54 "Hg0 mi
3:00 am27 °FIce fog.6 mph93%30.54 "Hg1 mi
2:30 am27 °FIce fog.5 mph100%30.54 "Hg0 mi
2:00 am25 °FIce fog.5 mph93%30.54 "Hg0 mi
1:00 am27 °FIce fog.3 mph93%30.54 "Hg1 mi
12:30 am25 °FIce fog.3 mph100%30.54 "Hg2 mi
12:00 am25 °FIce fog.5 mph100%30.54 "Hg3 mi
11:30 pm
Tue, Dec 6
27 °FIce fog.2 mph100%30.54 "Hg1 mi
11:00 pm27 °FIce fog.3 mph100%30.54 "Hg1 mi
10:00 pm27 °FIce fog.2 mph93%30.51 "Hg1 mi
9:30 pm27 °FIce fog.1 mph100%30.51 "Hg1 mi
9:00 pm27 °FIce fog.1 mph100%30.51 "Hg2 mi
8:30 pm28 °FIce fog.1 mph93%30.51 "Hg2 mi
8:00 pm30 °FIce fog.1 mph93%30.51 "Hg3 mi
7:00 pm30 °FIce fog.1 mph93%30.48 "Hg1 mi
6:30 pm30 °FClear.1 mph100%30.48 "Hg10 mi
6:00 pm32 °FClear.1 mph93%30.48 "Hg10 mi
5:30 pm32 °FClear.2 mph93%30.48 "Hg10 mi
5:00 pm34 °FClear.5 mph93%30.45 "Hg10 mi
4:30 pm34 °FClear.3 mph93%30.45 "Hg10 mi
4:00 pm37 °FClear.3 mph81%30.42 "Hg10 mi
3:30 pm39 °FSunny.5 mph75%30.42 "Hg10 mi
3:00 pm41 °FPassing clouds.5 mph76%30.39 "HgN/A
2:30 pm41 °FPassing clouds.7 mph76%30.39 "HgN/A
2:00 pm43 °FPassing clouds.6 mph76%30.39 "HgN/A
1:30 pm41 °FPassing clouds.3 mph87%30.36 "HgN/A
1:00 pm43 °FBroken clouds.7 mph76%30.36 "HgN/A
12:30 pm43 °FScattered clouds.7 mph87%30.36 "HgN/A
12:00 pm41 °FScattered clouds.8 mph93%30.36 "HgN/A
11:30 am41 °FBroken clouds.7 mph93%30.36 "HgN/A
11:00 am41 °FScattered clouds.8 mph93%30.36 "HgN/A
Weather by CustomWeather, © 2016

See weather overviewHow to use our weather pages